YAM-7 (60504 NORAD) Tracking and Keplerian Element Data

This shows tracking and keplerian element data for the satellite.

Feedback or suggestion? Click here.




ElementValue
Catalog60504
NameYAM-7
Epoch Orbit864
Epoch Day286.76121185
Epoch Year2024
RAAN1.4506
Inclination97.4384
Eccentricity0.0003207
Argument of Perigee303.8391
Mean Anonmoly56.2538
Mean Motion15.1950429
Decay Rate0.0001503
L11 60504U 24149AN 24286.76121185 .00015030 00000+0 71012-3 0 9990
L22 60504 97.4384 1.4506 0003207 303.8391 56.2538 15.19504290 8640



Live tracking and technical data element details for YAM-7 (NORAD 60504). YAM-7 can be tracked NOW for your location showing map with azimuth and elevation plus other details from your city location.







IsCatalogInMostPopularTable: catalog: 60504, numindb: 4
Update: records affected: 1



GetName: 60504 YAM-7

Hit Count: updated at: Wed, 04 Dec 2024 18:13:10 GMT